Wind_Speed
10 10 10 10 9 9 9 9 9 8 8 7 7 6 6 5 5 4 4 3 3 3 2 2 1 1 2 3 3 4 5 5 6 7 8 8 8 8 8 8 8 9 9
12 12 12 11 11 11 10 10 10 9 9 8 8 8 7 7 6 5 5 4 4 4 3 3 2 2 3 3 4 4 5 6 7 8 8 8 8 8 9 9 9 10 10
14 14 14 13 13 13 12 11 11 11 10 10 10 10 9 8 7 7 6 5 5 5 4 4 3 3 3 4 5 5 6 7 7 8 8 9 9 9 10 10 10 11 11
17 16 16 15 15 15 14 13 13 12 12 12 11 11 11 10 9 8 7 6 6 6 5 5 5 4 5 5 6 6 7 8 8 9 9 10 10 10 11 12 12 12 12
19 18 18 17 17 17 16 15 15 14 14 14 13 13 12 11 10 9 8 7 7 7 6 6 6 6 6 7 7 7 8 8 9 10 10 11 11 12 13 13 13 13 14
22 21 20 20 19 18 18 17 16 17 16 16 15 14 13 12 11 10 10 9 8 8 8 8 8 8 8 8 8 9 9 10 10 11 11 12 12 13 14 14 14 15 15
24 23 23 22 21 20 19 18 18 18 18 18 17 16 15 14 13 11 11 10 10 9 10 9 9 9 10 10 10 10 11 11 11 12 13 13 14 14 15 15 16 16 16
26 25 25 25 23 22 22 21 20 20 20 19 19 18 17 15 14 13 12 11 11 11 11 11 11 11 11 12 12 12 12 13 13 14 15 15 16 16 17 17 18 18 18
29 28 27 26 26 24 23 23 22 21 21 21 20 19 18 17 16 15 14 13 13 12 12 13 13 13 13 13 14 14 14 14 15 16 17 17 18 19 19 19 20 20 20
31 30 29 28 27 26 26 25 24 23 23 23 22 21 20 19 18 17 16 15 14 14 14 14 15 15 15 15 15 15 16 16 17 18 18 19 20 21 21 21 22 22 22
33 32 31 30 29 28 27 27 26 25 25 25 24 23 22 21 20 19 18 17 16 16 16 16 17 17 17 17 17 17 17 18 19 20 21 22 22 23 23 24 24 24 24
35 34 33 32 31 30 29 29 28 27 26 26 25 25 24 23 22 22 21 20 19 18 18 18 18 19 19 19 19 20 20 21 22 22 23 24 24 24 25 25 26 26 26
37 36 34 34 32 32 31 30 30 28 27 27 27 26 26 26 25 24 23 23 22 21 21 21 20 20 20 21 22 22 23 24 24 24 25 25 25 26 26 26 27 27 27
38 37 36 35 34 33 32 32 31 30 29 29 29 28 28 28 27 27 26 25 25 24 24 23 22 23 22 23 24 24 25 25 26 26 27 27 28 28 28 28 28 28 29
38 37 37 36 35 35 34 33 32 31 31 30 30 30 30 30 29 29 28 28 27 26 26 26 25 25 25 26 26 26 27 27 28 28 28 28 29 29 30 30 30 31 31
39 38 37 36 35 35 35 34 33 32 32 31 31 31 31 31 31 30 30 29 29 28 28 28 28 27 28 28 28 29 29 30 30 30 30 30 30 30 31 31 31 32 33
40 39 38 37 36 36 35 35 34 33 33 32 32 32 32 32 32 32 31 31 30 30 30 30 30 30 30 30 30 31 31 31 32 32 32 32 32 33 33 33 34 34 35
41 40 39 39 38 38 37 36 35 34 34 33 33 33 32 33 33 33 33 32 32 32 32 32 32 32 32 32 32 32 33 33 34 35 35 35 35 36 36 36 36 37 37
42 41 41 41 40 40 39 38 36 36 35 35 35 34 33 33 34 34 34 34 34 34 33 34 34 34 34 34 34 34 35 35 36 36 37 37 37 37 38 38 39 39 39
41 41 42 41 41 41 41 39 38 37 36 36 36 35 34 34 34 35 35 35 36 35 35 35 35 35 36 36 36 36 37 37 37 38 38 38 38 38 39 40 40 40 40
42 41 41 41 41 42 41 40 39 39 37 36 37 36 35 35 35 36 37 37 37 37 37 37 37 37 38 38 39 38 38 38 38 38 38 38 39 40 40 41 41 40 40
41 41 42 42 41 42 42 41 41 40 38 38 38 38 37 36 36 37 38 38 38 38 38 38 38 39 40 41 41 41 40 39 39 39 40 40 41 41 41 41 41 41 41
42 42 42 43 44 43 43 43 43 42 41 40 40 38 38 38 37 38 40 40 40 41 41 41 40 41 42 43 43 42 43 43 42 41 42 42 43 42 42 42 42 42 43
42 42 42 44 44 44 45 45 44 44 42 41 40 40 40 40 40 40 41 43 43 43 43 43 42 42 44 44 44 44 45 45 45 44 43 43 42 43 42 42 43 44 44
42 43 42 44 45 45 46 46 45 45 44 43 42 41 42 43 43 43 43 43 44 44 44 44 44 44 45 45 45 45 45 45 45 44 43 42 41 42 42 43 43 44 45
41 42 43 43 44 45 45 46 46 46 45 45 45 44 42 43 43 43 44 45 45 45 45 46 46 45 45 45 45 46 45 44 44 44 43 42 42 42 43 44 44 45 45
Wind_Direction
234 232 231 235 235 234 232 229 227 226 224 225 227 227 228 224 218 220 218 220 221 220 220 236 266 308 332 340 343 339 338 341 340 339 336 335 334 335 334 331 329 328 329
237 237 236 238 238 239 238 236 235 231 229 229 230 229 230 229 227 228 229 230 230 231 240 252 261 281 310 320 326 328 328 330 331 332 332 330 329 330 330 328 325 324 324
238 238 239 240 239 240 240 241 241 237 233 231 231 233 234 234 234 234 235 236 233 234 244 252 257 271 293 308 314 319 319 322 323 323 324 326 327 327 326 323 322 321 320
240 239 240 240 239 241 243 245 244 242 238 236 236 235 234 234 235 236 235 236 238 239 245 253 259 269 284 295 304 310 313 314 316 317 318 319 321 322 322 320 319 317 317
242 242 240 240 241 243 244 246 247 246 242 241 240 237 234 232 233 236 237 238 242 244 250 258 265 271 280 290 298 305 308 310 313 314 315 316 317 318 319 318 317 315 314
241 242 241 241 242 244 245 246 248 248 245 243 242 239 236 234 235 238 241 242 245 249 253 262 270 276 280 287 292 298 301 305 307 310 313 314 314 314 315 315 315 315 313
241 241 241 242 243 245 246 246 248 248 245 243 242 240 239 237 237 239 242 246 248 252 257 262 269 276 281 285 289 293 296 299 302 305 308 308 309 310 310 310 310 311 311
241 241 242 242 243 244 245 247 248 246 243 241 241 241 240 238 238 240 244 248 253 256 259 262 268 274 279 282 286 290 293 295 297 301 303 305 306 306 307 307 308 308 308
242 242 242 243 243 243 245 247 247 243 240 239 239 239 240 239 240 241 245 250 257 260 262 264 267 272 278 282 285 288 290 291 294 297 299 302 303 302 303 304 305 305 305
242 242 242 244 242 242 245 246 244 241 239 238 239 239 241 241 242 242 244 250 256 262 264 266 269 272 276 279 283 286 287 290 293 295 296 299 300 301 300 301 302 303 303
242 241 242 243 242 243 244 243 241 239 237 237 239 240 240 241 242 243 245 250 254 262 266 267 270 273 275 278 280 283 286 289 292 294 296 297 298 299 299 299 299 299 300
240 241 242 242 243 243 242 240 238 237 237 238 239 241 241 241 243 244 248 251 256 261 266 267 269 273 274 277 279 281 284 289 291 293 295 297 298 298 297 297 297 297 297
240 241 241 242 242 241 239 237 236 236 237 238 240 241 243 244 245 246 249 253 258 262 265 267 269 272 273 275 277 281 284 288 290 292 294 295 295 296 296 297 297 296 296
240 240 241 241 240 239 238 236 235 236 237 239 241 242 244 246 246 247 250 254 258 261 264 266 270 273 274 276 278 280 283 288 289 291 293 293 294 294 294 295 296 296 297
239 240 241 240 240 238 237 236 235 236 237 239 241 243 245 246 247 249 252 255 258 261 264 266 269 274 274 276 279 280 284 287 288 289 291 292 293 293 294 294 294 294 295
238 239 240 239 239 238 237 235 236 237 237 239 241 243 245 248 248 250 253 256 258 260 264 267 270 274 276 277 279 282 284 286 287 288 290 290 291 292 292 293 293 293 294
236 238 239 238 238 238 236 235 236 238 239 241 243 245 247 249 249 250 253 256 258 261 264 267 270 273 276 277 280 282 284 285 287 288 289 290 291 292 292 292 291 292 293
235 236 237 237 237 237 236 235 236 238 240 241 244 247 249 250 250 251 254 257 259 262 264 267 271 273 276 278 279 282 283 285 286 287 288 289 290 291 291 291 291 292 293
234 235 236 236 237 236 236 237 237 239 240 242 244 248 249 251 252 253 254 257 259 262 265 268 271 274 277 278 279 281 283 284 285 286 288 288 289 290 290 290 290 291 292
232 233 234 234 235 235 236 237 238 239 241 243 245 247 249 251 253 254 255 258 260 263 266 269 272 275 277 279 279 280 282 283 285 285 286 287 289 290 290 290 290 291 291
230 231 232 232 234 235 236 238 239 241 243 245 246 247 249 251 255 256 256 259 261 264 267 270 273 275 277 278 279 280 281 282 284 284 285 287 288 289 290 290 290 290 290
230 232 232 232 233 235 237 238 239 242 244 245 247 249 250 253 256 257 257 259 262 265 268 271 273 276 277 278 279 279 280 281 282 283 284 285 287 288 288 289 290 290 291
231 233 233 233 234 237 238 239 240 242 244 246 248 249 251 253 256 258 259 260 263 266 268 271 274 276 277 278 278 279 280 281 282 282 283 284 286 287 288 288 288 290 290
232 233 234 234 235 237 238 239 241 243 245 247 250 251 252 254 257 259 261 262 264 266 268 270 272 274 276 277 277 279 281 282 283 283 284 285 286 286 287 287 288 289 290
231 233 234 235 236 238 239 241 243 245 246 248 251 253 253 255 257 260 262 263 264 267 269 271 272 274 274 275 277 279 281 282 283 284 285 286 285 286 287 288 289 290 290
233 235 236 237 238 240 242 243 245 246 248 250 252 255 256 256 258 260 262 263 264 266 268 270 272 274 275 276 277 279 280 282 282 283 284 285 285 286 287 287 289 291 292
Height
5867 5867 5867 5868 5868 5869 5869 5869 5870 5870 5870 5870 5871 5871 5871 5871 5870 5870 5870 5869 5870 5869 5869 5869 5869 5868 5868 5868 5867 5867 5866 5865 5864 5864 5863 5861 5860 5859 5858 5857 5856 5854 5853
5864 5865 5865 5866 5867 5867 5868 5868 5868 5869 5869 5869 5869 5869 5869 5869 5869 5869 5869 5869 5868 5868 5868 5868 5868 5868 5867 5867 5866 5865 5865 5864 5863 5862 5861 5860 5859 5858 5857 5856 5854 5853 5852
5862 5862 5863 5864 5864 5865 5866 5866 5867 5867 5867 5867 5867 5868 5868 5868 5868 5868 5867 5867 5867 5867 5867 5867 5867 5866 5866 5865 5865 5864 5863 5863 5862 5861 5860 5859 5858 5856 5855 5854 5853 5851 5850
5859 5859 5860 5861 5862 5862 5863 5864 5864 5865 5865 5865 5865 5866 5866 5866 5866 5866 5866 5866 5866 5866 5866 5866 5865 5865 5865 5864 5864 5863 5862 5861 5860 5859 5858 5857 5856 5855 5854 5852 5851 5850 5848
5855 5856 5857 5858 5859 5859 5860 5861 5861 5862 5863 5863 5863 5864 5864 5864 5864 5864 5864 5864 5864 5864 5864 5864 5864 5864 5863 5863 5862 5861 5860 5860 5859 5858 5856 5855 5854 5853 5852 5850 5849 5847 5846
5851 5852 5853 5854 5855 5856 5857 5857 5858 5859 5860 5860 5861 5861 5861 5862 5862 5862 5862 5862 5862 5863 5863 5863 5862 5862 5861 5861 5860 5859 5859 5858 5857 5856 5854 5853 5852 5851 5849 5848 5846 5845 5843
5846 5847 5848 5850 5851 5852 5853 5854 5854 5855 5856 5857 5858 5858 5859 5859 5859 5860 5860 5860 5860 5860 5860 5860 5860 5860 5859 5859 5858 5857 5856 5855 5854 5853 5852 5851 5850 5848 5847 5845 5843 5842 5840
5841 5842 5843 5844 5846 5847 5848 5849 5850 5851 5852 5853 5854 5855 5855 5856 5857 5857 5857 5858 5858 5858 5858 5858 5857 5857 5857 5856 5855 5855 5854 5853 5852 5851 5849 5848 5847 5845 5844 5842 5840 5839 5837
5835 5836 5838 5839 5840 5841 5843 5844 5845 5846 5847 5849 5850 5851 5852 5853 5853 5854 5854 5855 5855 5855 5855 5855 5855 5854 5854 5853 5852 5852 5851 5850 5849 5848 5846 5845 5844 5842 5840 5838 5837 5835 5833
5828 5830 5831 5833 5834 5835 5837 5838 5839 5840 5842 5844 5845 5846 5848 5849 5850 5850 5851 5851 5852 5852 5852 5851 5851 5851 5850 5850 5849 5848 5847 5846 5845 5844 5842 5841 5840 5838 5836 5834 5833 5831 5829
5820 5823 5824 5826 5827 5829 5830 5831 5833 5834 5836 5838 5840 5842 5843 5844 5845 5846 5847 5847 5848 5848 5848 5848 5848 5847 5847 5846 5845 5844 5844 5842 5841 5840 5838 5837 5835 5834 5832 5830 5828 5826 5824
5813 5815 5817 5819 5820 5821 5823 5824 5826 5828 5830 5833 5835 5837 5838 5839 5840 5842 5842 5843 5843 5844 5844 5844 5843 5843 5842 5842 5841 5840 5839 5838 5837 5835 5834 5832 5830 5829 5827 5825 5823 5821 5819
5804 5806 5809 5811 5812 5813 5815 5817 5820 5822 5824 5827 5829 5831 5833 5834 5835 5836 5837 5838 5839 5839 5839 5839 5838 5838 5838 5837 5836 5835 5835 5833 5832 5830 5829 5827 5825 5823 5821 5819 5817 5815 5813
5795 5797 5800 5802 5804 5806 5808 5810 5813 5816 5818 5820 5822 5825 5827 5828 5829 5831 5832 5833 5834 5834 5834 5834 5834 5833 5833 5832 5831 5830 5829 5828 5826 5825 5823 5821 5819 5817 5815 5814 5812 5809 5807
5786 5789 5791 5793 5795 5798 5800 5803 5806 5808 5811 5814 5816 5818 5820 5822 5823 5825 5826 5827 5828 5829 5829 5829 5829 5828 5827 5826 5825 5824 5823 5822 5820 5818 5817 5815 5813 5811 5809 5807 5805 5803 5801
5776 5780 5782 5785 5787 5790 5793 5796 5799 5801 5804 5807 5809 5811 5813 5815 5817 5818 5820 5821 5822 5823 5823 5823 5823 5822 5821 5820 5819 5818 5817 5815 5814 5812 5810 5808 5806 5804 5802 5800 5798 5796 5793
5767 5771 5774 5777 5780 5783 5786 5789 5792 5795 5797 5800 5802 5804 5806 5808 5810 5811 5813 5814 5815 5816 5816 5816 5816 5815 5815 5814 5812 5811 5810 5808 5807 5805 5803 5801 5799 5797 5795 5792 5790 5787 5785
5757 5762 5765 5769 5772 5775 5779 5782 5785 5788 5790 5793 5795 5797 5799 5801 5802 5804 5806 5807 5808 5809 5809 5809 5809 5808 5808 5807 5805 5804 5802 5801 5799 5797 5795 5793 5791 5788 5786 5784 5782 5779 5776
5748 5752 5756 5760 5764 5768 5771 5775 5778 5781 5783 5785 5788 5789 5791 5793 5795 5797 5798 5800 5801 5801 5802 5802 5801 5801 5800 5799 5798 5796 5795 5793 5791 5789 5787 5784 5782 5779 5777 5775 5772 5769 5767
5739 5743 5747 5752 5756 5760 5763 5767 5770 5773 5776 5778 5780 5782 5784 5785 5787 5789 5790 5792 5793 5793 5794 5794 5793 5793 5792 5790 5789 5788 5786 5784 5782 5780 5777 5775 5772 5770 5767 5765 5762 5760 5757
5730 5734 5739 5743 5747 5751 5755 5759 5762 5765 5768 5771 5773 5774 5776 5777 5779 5781 5782 5783 5784 5785 5785 5785 5785 5784 5783 5781 5780 5779 5777 5775 5773 5770 5768 5766 5763 5761 5758 5755 5752 5750 5747
5721 5726 5730 5736 5740 5743 5747 5751 5754 5757 5760 5762 5765 5766 5768 5769 5771 5772 5773 5775 5776 5776 5777 5776 5776 5775 5774 5772 5770 5769 5768 5767 5764 5762 5759 5757 5754 5751 5749 5746 5743 5740 5737
5713 5718 5723 5727 5731 5735 5739 5742 5745 5748 5751 5753 5756 5758 5760 5761 5763 5763 5765 5766 5767 5767 5767 5767 5766 5765 5764 5763 5760 5759 5757 5757 5755 5754 5750 5748 5745 5742 5739 5736 5734 5731 5728
5705 5710 5715 5719 5723 5727 5730 5733 5737 5740 5743 5745 5747 5749 5751 5752 5753 5754 5755 5756 5757 5757 5757 5757 5756 5755 5754 5753 5751 5749 5748 5746 5744 5743 5742 5738 5735 5732 5730 5727 5724 5721 5718
5697 5702 5706 5710 5714 5718 5721 5724 5728 5731 5734 5736 5737 5739 5741 5742 5744 5745 5745 5746 5746 5747 5747 5746 5746 5745 5743 5742 5741 5739 5737 5735 5733 5731 5730 5729 5725 5722 5720 5717 5714 5711 5708
5688 5693 5697 5701 5705 5709 5712 5715 5718 5721 5724 5726 5728 5729 5731 5732 5734 5734 5735 5735 5735 5736 5736 5735 5735 5734 5733 5732 5730 5729 5727 5725 5723 5721 5719 5718 5715 5713 5710 5706 5703 5701 5697